星链-31112 (STARLINK-31112 )

导读

STARLINK-31112是美国SpaceX星链卫星互联网项目的一员,于2023年12月29日发射入轨,属于星链低轨星座组网卫星,该卫星延续星链卫星标准设计,运行在近地轨道,依托星链大规模星座布局,为全球提供高速低延迟的宽带互联网服务,补充完善了星链星座的全球覆盖与服务能力。

基本信息
目录编号:
58680
目录名称:
STARLINK-31112
国际标识:
2023-211P
轨道中心:
EARTH
卫星名称:
星链-31112
卫星全名:
星链-31112 (STARLINK-31112 )
卫星状态:
在轨 (已飞行902 天)
发射日期:
2023-12-29 UTC
国别 :
美国 (US)
星等 :
--
轨道信息
数据来源 国际轨道数据
星历时间: 2026-06-17T06:26:29+0800
1天前
查看轨道信息
半长轴: 6861.179km
偏心率: 0.0000723
轨道倾角: 43.002°
近地点辐角 297.409°
升交点赤经 244.732°
平近点角 62.668°
近地点: 482.545km
远地点: 483.539km
周期: 94.267分钟
每日圈数: 15.275826
详细信息
固有亮度:
5
最大亮度:
0.3
卫星平台:
Starlink v2.0 mini
覆盖范围:
全球
运营商:
太空探索技术公司
运营商所在国:
美国
制造商(研发单位):
太空探索技术公司
制造商所在国:
美国
使用方式:
暂无
卫星简介
星链(Starlink)计划是由太空探索技术公司(SpaceX)提出的一个巨型低轨卫星互联网星座项目,计划在2019年至2024年间在太空搭建由约1.2万颗卫星组成的“星链”网络,其中1584颗将部署在地球上空550千米处的近地轨道,并从2020年开始工作。该卫星仍在工作。
2D轨道图
3D轨道图
轨道高度分析图
轨道倾角分析图
轨道综合分析图
查看轨道综合分析图